This is the latest recevied weather packets stored in our database for station/object KI4FRU. If no packets are shown the sender has not sent any weather packets the latest 10 day(s).
| Time | Temp. | Humidity | Pressure | Rain* | Wind** | Luminosity | Snow |
|---|---|---|---|---|---|---|---|
| 1777947795 | 18.89° C | 58% | 1053.8 hPa | 0 mm | - | 0 W/m² | - |
| 1777947493 | 18.33° C | 59% | 1054 hPa | 0 mm | - | 0 W/m² | - |
| 1777947189 | 18.33° C | 59% | 1053.7 hPa | 0 mm | - | 0 W/m² | - |
| 1777946885 | 18.33° C | 59% | 1053.6 hPa | 0 mm | - | 0 W/m² | - |
| 1777946581 | 18.89° C | 59% | 1053.5 hPa | 0 mm | - | 0 W/m² | - |
| 1777946278 | 18.89° C | 58% | 1053.5 hPa | 0 mm | - | 0 W/m² | - |
| 1777945975 | 18.33° C | 58% | 1053.3 hPa | 0 mm | - | 0 W/m² | - |
| 1777945673 | 18.89° C | 59% | 1053.3 hPa | 0 mm | - | 0 W/m² | - |
| 1777945370 | 18.89° C | 59% | 1053.4 hPa | 0 mm | - | 0 W/m² | - |
| 1777945066 | 18.89° C | 57% | 1053.2 hPa | 0 mm | - | 0 W/m² | - |
| 1777944762 | 18.89° C | 60% | 1053.2 hPa | 0 mm | - | 0 W/m² | - |
| 1777944461 | 18.33° C | 61% | 1053.4 hPa | 0 mm | - | 0 W/m² | - |
| 1777944158 | 18.33° C | 63% | 1053.2 hPa | 0 mm | - | 0 W/m² | - |
| 1777943853 | 18.33° C | 63% | 1053.2 hPa | 0 mm | - | 0 W/m² | - |
| 1777943551 | 17.78° C | 64% | 1053.4 hPa | 0 mm | - | 0 W/m² | - |
| 1777943246 | 17.78° C | 64% | 1053.2 hPa | 0 mm | - | 0 W/m² | - |
| 1777942943 | 17.78° C | 63% | 1053.1 hPa | 0 mm | - | 0 W/m² | - |
| 1777942639 | 18.33° C | 64% | 1053 hPa | 0 mm | - | 0 W/m² | - |
| 1777942336 | 18.33° C | 65% | 1053.2 hPa | 0 mm | - | 0 W/m² | - |
| 1777942033 | 18.89° C | 62% | 1053.1 hPa | 0 mm | - | 0 W/m² | - |
| 1777941730 | 19.44° C | 62% | 1053 hPa | 0 mm | - | 0 W/m² | - |
| 1777941427 | 20° C | 57% | 1053.1 hPa | 0 mm | - | 0 W/m² | - |
| 1777941125 | 20° C | 56% | 1052.9 hPa | 0 mm | - | 0 W/m² | - |
| 1777940821 | 20.56° C | 55% | 1052.9 hPa | 0 mm | - | 0 W/m² | - |
| 1777940519 | 20.56° C | 55% | 1052.6 hPa | 0 mm | - | 1 W/m² | - |
* Rain latest hour (hover to see other rain measurements)
** Current wind speed in m/s (hover to see current wind gust speed)